Weather History for KAMN - October, 2012

Change the Weather History Date:

Monday, October 8, 2012

  Actual Average Record
Temperature  
Mean Temperature 40 °F -  
Max Temperature 54 °F 62 °F 87 °F (2007)
Min Temperature 27 °F 40 °F 26 °F (2001)
Degree Days  
Heating Degree Days 24    
Moisture  
Dew Point 28 °F    
Average Humidity 66    
Maximum Humidity 100    
Minimum Humidity 30    
Precipitation  
Precipitation 0.00 in - - ()
Sea Level Pressure  
Sea Level Pressure 30.11 in    
Wind  
Wind Speed 5 mph (South)    
Max Wind Speed 17 mph    
Max Gust Speed 28 mph    
Visibility 10 miles    
Events      
Averages and records for this station are not official NWS values.
T = Trace of Precipitation, MM = Missing Value Source: NWS Daily Summary

Daily Weather History Graph

Daily Weather History Graph

Search for Another Location

Airport or City:

Trip Planner

Search our weather history database for the weather conditions in past years. The results will help you decide how hot, cold, wet, or windy it might be!

Date:

Astronomy

Oct. 08, 2012 Rise Set
Actual Time 7:44 AM EDT 7:06 PM EDT
Civil Twilight 7:16 AM EDT 7:35 PM EDT
Nautical Twilight 6:43 AM EDT 8:08 PM EDT
Astronomical Twilight 6:10 AM EDT 8:41 PM EDT
Moon 12:12 AM EDT (10/8) 3:05 PM EDT (10/8)
Length of Visible Light 12h 18m
Length of Day
11h 21m
Waning Gibbous, 46% of the Moon is Illuminated
Oct 8
Waning Gibbous
Oct 15
New
Oct 21
First Quarter
Oct 29
Full
Nov 6
Last Quarter

Hourly Weather History & Observations

Time (EDT) Temp. Windchill Dew Point Humidity Pressure Visibility Wind Dir Wind Speed Gust Speed Precip Events Conditions
12:13 AM 29.1 °F - 28.0 °F 96% 30.13 in 10.0 mi Calm Calm - N/A   Clear
12:33 AM 29.3 °F - 28.6 °F 97% 30.13 in 10.0 mi Calm Calm - N/A   Clear
12:53 AM 28.4 °F - 28.0 °F 99% 30.13 in 10.0 mi Calm Calm - N/A   Clear
1:13 AM 28.6 °F - 28.2 °F 99% 30.13 in 10.0 mi Calm Calm - N/A   Clear
1:33 AM 28.8 °F - 28.4 °F 99% 30.13 in 7.0 mi Calm Calm - N/A   Clear
1:53 AM 28.2 °F - 27.7 °F 98% 30.13 in 10.0 mi Calm Calm - N/A   Clear
2:13 AM 27.1 °F - 27.0 °F 99% 30.13 in 10.0 mi Calm Calm - N/A   Clear
2:33 AM 27.5 °F - 27.5 °F 100% 30.13 in 10.0 mi Calm Calm - N/A   Clear
2:53 AM 28.8 °F - 28.2 °F 98% 30.13 in 10.0 mi Calm Calm - N/A   Clear
3:13 AM 30.4 °F - 30.2 °F 99% 30.13 in 10.0 mi Calm Calm - N/A   Clear
3:34 AM 28.9 °F 25.2 °F 28.4 °F 98% 30.13 in 10.0 mi South 3.5 mph - N/A   Clear
3:54 AM 29.7 °F 23.7 °F 29.1 °F 98% 30.13 in 10.0 mi SSW 5.8 mph - N/A   Clear
4:14 AM 29.8 °F 24.9 °F 28.9 °F 96% 30.13 in 10.0 mi South 4.6 mph - N/A   Clear
4:34 AM 30.0 °F 25.2 °F 29.1 °F 96% 30.12 in 10.0 mi South 4.6 mph - N/A   Clear
4:54 AM 30.2 °F 26.7 °F 29.3 °F 96% 30.13 in 10.0 mi South 3.5 mph - N/A   Clear
5:14 AM 30.7 °F 27.3 °F 29.1 °F 94% 30.13 in 10.0 mi South 3.5 mph - N/A   Clear
5:34 AM 31.3 °F 27.9 °F 29.7 °F 94% 30.12 in 10.0 mi South 3.5 mph - N/A   Mostly Cloudy
5:54 AM 31.1 °F 26.4 °F 29.3 °F 93% 30.13 in 10.0 mi South 4.6 mph - N/A   Mostly Cloudy
6:14 AM 31.3 °F 25.6 °F 29.1 °F 92% 30.12 in 10.0 mi South 5.8 mph - N/A   Clear
6:35 AM 32.0 °F 25.6 °F 29.7 °F 91% 30.13 in 10.0 mi South 6.9 mph - N/A   Clear
6:55 AM 31.6 °F 26.0 °F 29.3 °F 91% 30.14 in 10.0 mi South 5.8 mph - N/A   Scattered Clouds
7:10 AM 31.5 °F 24.9 °F 29.7 °F 93% 30.14 in 10.0 mi South 6.9 mph - N/A   Scattered Clouds
7:30 AM 31.8 °F 25.4 °F 29.5 °F 91% 30.14 in 10.0 mi South 6.9 mph - N/A   Clear
7:50 AM 31.8 °F 25.4 °F 29.7 °F 92% 30.14 in 10.0 mi South 6.9 mph - N/A   Clear
8:10 AM 32.0 °F 26.4 °F 30.2 °F 93% 30.14 in 10.0 mi South 5.8 mph - N/A   Clear
8:30 AM 32.4 °F 26.0 °F 30.7 °F 94% 30.15 in 10.0 mi South 6.9 mph - N/A   Clear
8:50 AM 33.1 °F 26.9 °F 31.5 °F 94% 30.16 in 10.0 mi South 6.9 mph - N/A   Mostly Cloudy
9:10 AM 34.0 °F 28.0 °F 32.0 °F 92% 30.16 in 10.0 mi SSW 6.9 mph - N/A   Overcast
9:31 AM 35.4 °F 30.5 °F 32.2 °F 88% 30.16 in 10.0 mi SSW 5.8 mph - N/A   Mostly Cloudy
9:51 AM 38.8 °F 33.2 °F 33.8 °F 82% 30.16 in 10.0 mi SSW 8.1 mph - N/A   Mostly Cloudy
10:11 AM 41.0 °F 35.8 °F 32.9 °F 73% 30.16 in 10.0 mi SSW 8.1 mph - N/A   Mostly Cloudy
10:31 AM 42.8 °F 36.6 °F 32.4 °F 67% 30.16 in 10.0 mi SSW 11.5 mph 16.1 mph N/A   Scattered Clouds
10:51 AM 45.0 °F 39.3 °F 31.8 °F 60% 30.15 in 10.0 mi SSW 11.5 mph 19.6 mph N/A   Scattered Clouds
11:11 AM 47.1 °F - 31.6 °F 55% 30.15 in 10.0 mi SW 12.7 mph 17.3 mph N/A   Clear
11:31 AM 49.3 °F - 31.8 °F 51% 30.15 in 10.0 mi SW 10.4 mph 18.4 mph N/A   Mostly Cloudy
11:51 AM 50.9 °F - 30.9 °F 46% 30.15 in 10.0 mi SSW 12.7 mph 18.4 mph N/A   Scattered Clouds
12:12 PM 51.4 °F - 29.3 °F 43% 30.14 in 10.0 mi SSW 12.7 mph 20.7 mph N/A   Clear
12:32 PM 52.3 °F - 30.0 °F 42% 30.14 in 10.0 mi SSW 10.4 mph 20.7 mph N/A   Clear
12:52 PM 52.7 °F - 28.8 °F 40% 30.14 in 10.0 mi SSW 17.3 mph 27.6 mph N/A   Scattered Clouds
1:12 PM 51.8 °F - 27.5 °F 39% 30.13 in 10.0 mi SW 13.8 mph 18.4 mph N/A   Scattered Clouds
1:52 PM 53.8 °F - 28.4 °F 38% 30.12 in 10.0 mi SSW 12.7 mph 20.7 mph N/A   Scattered Clouds
2:13 PM 53.8 °F - 26.8 °F 35% 30.11 in 10.0 mi SSW 12.7 mph 25.3 mph N/A   Clear
2:33 PM 53.8 °F - 26.2 °F 35% 30.10 in 10.0 mi SW 13.8 mph 23.0 mph N/A   Scattered Clouds
2:53 PM 54.3 °F - 25.7 °F 33% 30.09 in 10.0 mi South 15.0 mph 21.9 mph N/A   Scattered Clouds
3:13 PM 54.9 °F - 25.9 °F 33% 30.09 in 10.0 mi SSW 10.4 mph 19.6 mph N/A   Clear
3:33 PM 54.5 °F - 25.5 °F 33% 30.09 in 10.0 mi South 10.4 mph 19.6 mph N/A   Scattered Clouds
3:53 PM 54.9 °F - 25.7 °F 32% 30.08 in 10.0 mi SSW 17.3 mph 20.7 mph N/A   Scattered Clouds
4:13 PM 53.8 °F - 23.5 °F 31% 30.08 in 10.0 mi South 13.8 mph 20.7 mph N/A   Clear
4:33 PM 54.1 °F - 24.8 °F 32% 30.07 in 10.0 mi South 11.5 mph 17.3 mph N/A   Clear
4:53 PM 54.0 °F - 23.2 °F 30% 30.07 in 10.0 mi SSW 12.7 mph 18.4 mph N/A   Clear
5:14 PM 53.6 °F - 23.2 °F 31% 30.06 in 10.0 mi South 12.7 mph - N/A   Clear
5:34 PM 53.4 °F - 23.2 °F 31% 30.06 in 10.0 mi SSW 9.2 mph 16.1 mph N/A   Clear
5:54 PM 52.5 °F - 23.2 °F 32% 30.06 in 10.0 mi South 10.4 mph - N/A   Clear
6:14 PM 51.6 °F - 23.5 °F 33% 30.06 in 10.0 mi South 9.2 mph 16.1 mph N/A   Clear
6:34 PM 50.5 °F - 23.4 °F 35% 30.06 in 10.0 mi South 9.2 mph - N/A   Clear
6:54 PM 48.6 °F - 24.6 °F 39% 30.06 in 10.0 mi South 6.9 mph - N/A   Clear
7:14 PM 46.8 °F - 25.3 °F 43% 30.06 in 10.0 mi South 4.6 mph - N/A   Clear
7:34 PM 45.3 °F 42.3 °F 25.3 °F 46% 30.06 in 10.0 mi South 5.8 mph - N/A   Clear
7:55 PM 44.2 °F 40.3 °F 25.5 °F 48% 30.06 in 10.0 mi South 6.9 mph - N/A   Clear
8:15 PM 43.2 °F 39.7 °F 26.1 °F 51% 30.06 in 10.0 mi South 5.8 mph - N/A   Clear
8:35 PM 43.2 °F 39.0 °F 26.2 °F 51% 30.06 in 10.0 mi South 6.9 mph - N/A   Clear
9:30 PM 42.6 °F 39.0 °F 26.6 °F 53% 30.07 in 10.0 mi South 5.8 mph - N/A   Clear
9:50 PM 42.8 °F 38.0 °F 26.6 °F 53% 30.07 in 10.0 mi South 8.1 mph - N/A   Clear
10:10 PM 43.2 °F 39.0 °F 26.4 °F 52% 30.07 in 10.0 mi South 6.9 mph - N/A   Clear
10:30 PM 43.3 °F 38.6 °F 26.4 °F 51% 30.07 in 10.0 mi South 8.1 mph - N/A   Clear
10:51 PM 43.3 °F 38.6 °F 26.4 °F 51% 30.07 in 10.0 mi South 8.1 mph - N/A   Clear
11:11 PM 43.7 °F 39.1 °F 26.4 °F 51% 30.06 in 10.0 mi South 8.1 mph - N/A   Clear
11:51 PM 44.6 °F 39.2 °F 26.6 °F 49% 30.05 in 10.0 mi South 10.4 mph 17.3 mph N/A   Clear